Regional Weather Roundup
Issued by NWS Upton, NY

Home | Current Version | Previous Version | Text Only | Print | Product List | Glossary On
Versions: 1 2 3 4 5 6 7 8 9 10 11 12 13 14 15 16 17 18 19 20 21 22 23 24 25 26 27 28 29 30 31 32 33 34 35 36 37 38 39 40 41 42 43 44 45 46 47
000
ASUS41 KOKX 280807
RWROKX

REGIONAL WEATHER ROUNDUP
NATIONAL WEATHER SERVICE NEW YORK NY
400 AM EDT TUE APR 28 2015

NOTE: "FAIR" INDICATES FEW OR NO CLOUDS BELOW 12,000 FEET WITH NO
SIGNIFICANT WEATHER AND/OR OBSTRUCTIONS TO VISIBILITY.

NYZ071-072-176-178-NJZ106-104-280900-
NEW YORK CITY METRO AREA


CITY           SKY/WX    TMP DP  RH WIND       PRES   REMARKS
CENTRAL PARK   PTCLDY    51  37  58 VRB3      29.75S
LAGUARDIA APRT PTCLDY    51  39  63 NW10G20   29.72S
KENNEDY INTL   MOCLDY    52  38  58 NW14      29.73R
NEWARK/LIBERTY PTCLDY    51  39  63 NW14      29.73S
BRNX BOT. GARD   N/A     50  37  62 N7        29.73F
TETERBORO      CLEAR     50  38  63 N9        29.72S
$$

NYZ177-179-078>081-280900-
LONG ISLAND NEW YORK

CITY           SKY/WX    TMP DP  RH WIND       PRES   REMARKS
FARMINGDALE    MOCLDY    50  40  68 NW10      29.71R
ISLIP          CLEAR     48  40  73 N15       29.68R
SHIRLEY        CLOUDY    48  41  76 NW12      29.70R
WESTHAMPTON    MOCLDY    47  40  76 NW9       29.69R
MONTAUK POINT    N/A     46  39  76 CALM      29.67R
$$

NYZ052-065-067-280900-
HUDSON VALLEY

CITY           SKY/WX    TMP DP  RH WIND       PRES   REMARKS
WHITE PLAINS   MOCLDY    48  38  68 NW16G22   29.71R
NEWBURGH       MOCLDY    50  39  66 NE16      29.75R
MONTGOMERY     CLOUDY    51  36  56 N8        29.74R
POUGHKEEPSIE   CLEAR     50  38  63 N9        29.74R
ALBANY         PTCLDY    44  37  76 NW6       29.77R
$$

NJZ001-105-106-008-010-013-015-019>022-104-280900-
NEW JERSEY

CITY           SKY/WX    TMP DP  RH WIND       PRES   REMARKS
NEWARK/LIBERTY PTCLDY    51  39  63 NW14      29.73S
TETERBORO      CLEAR     50  38  63 N9        29.72S
CALDWELL       CLEAR     49  38  65 N6        29.74S
MORRISTOWN     CLEAR     52  37  58 NW8       29.75S
SOMERVILLE     PTCLDY    51  38  60 N9        29.75R
SUSSEX         MOCLDY    48  38  68 VRB5      29.77S
ANDOVER          N/A     47  39  74 VRB7      29.76R
TRENTON        PTCLDY    48  37  65 NW8       29.77R
MILLVILLE      LGT RAIN  50  38  63 NW10      29.80R
ATLANTIC CITY  CLOUDY    51  37  58 NW12      29.77S
WRIGHTSTOWN    CLOUDY    49  38  65 NW9       29.75R
TOMS RIVER     CLOUDY    50  37  62 NW13      29.76R
BELMAR         CLOUDY    50  34  53 NW12      29.74R
$$

PAZ047>061-062-071-280900-
EASTERN PENNSYLVANIA

CITY           SKY/WX    TMP DP  RH WIND       PRES   REMARKS
PHILADELPHIA   CLOUDY    52  37  56 NW10      29.81R
ALLENTOWN      CLOUDY    50  40  68 VRB6      29.80R
SCRANTON       CLOUDY    47  40  76 N8        29.83R
$$

CTZ002-004>006-009-010-012-RIZ004-006-007-MAZ004-011-015-280900-
SOUTHERN NEW ENGLAND
 IN CT

CITY           SKY/WX    TMP DP  RH WIND       PRES   REMARKS
BRADLEY INTL   MOCLDY    48  34  58 N7        29.68R
HARTFORD       PTCLDY    49  34  56 N7        29.69R
DANBURY        CLEAR     47  37  68 NW7G16    29.73R
WTRBRY/OXFORD  CLEAR     45  37  76 NW6       29.71S
BRIDGEPORT     MOCLDY    49  42  77 NW13      29.70R
MERIDEN        PTCLDY    49  35  58 NW7       29.70R
NEW HAVEN      PTCLDY    49  42  77 NW6       29.70R
CHESTER        PTSUNNY   48  36  61 N10G18    29.68R
GROTON         CLOUDY    50  34  54 N14       29.66R
WILLIMANTIC    MOCLDY    47  34  60 N7        29.67R

 IN RI

CITY           SKY/WX    TMP DP  RH WIND       PRES   REMARKS
PROVIDENCE     CLOUDY    43  39  86 N12       29.68R
BLOCK ISLAND   MOCLDY    43  37  81 NE14G23   29.67R
WESTERLY       LGT RAIN  44  40  85 NE9G18    29.68R

 IN MA

CITY           SKY/WX    TMP DP  RH WIND       PRES   REMARKS
BOSTON         CLOUDY    43  36  76 NE18G30   29.68R
WORCESTER      LGT RAIN  44  34  67 NE6       29.67R
WESTFIELD      PTCLDY    46  33  60 N10       29.69R
PROVINCETOWN   CLOUDY   N/A N/A N/A N17G26    29.64R
NANTUCKET      MOCLDY    42  34  73 N26G33    29.60S
$$

ANZ330-335-338-340-345-350-353-355-280900-
COASTAL MARINE OBSERVATIONS


STATION/POSITION TIME  SKY/WX   TEMP    WIND        PRES    VSBY  WAVE
                                AIR SEA DIR/SP/G                  HT/PER
                 (UTC)          (F)     (DEG/KT/KT) (MB)    (MI)  (FT/S)
NY HARB ENTRANCE 0750            49 47  310/ 10/ 12 1006.0          2/ 4
4S FIRE IS       0703               44                N/A           2/ 3
20S FIRE ISLAND  0750            47 44  320/ 16/ 17 1005.4          2/ 4
23SW MTP         0750            45 43   30/  4/  6 1004.2          2/ 4
HUDSON CANYON    NOT AVBL
EXECUTION ROCKS  NOT AVBL
WESTERN LI SOUND NOT AVBL
CENTRAL LI SOUND NOT AVBL
EASTERN LI SOUND 0700            49     340/ 12/ 17   N/A
ROBBINS REEF     0706            52                   N/A
$$


>>>>>>>>>>>>>>>>>>>>>>>>>>>> KEY <<<<<<<<<<<<<<<<<<<<<<<<<<<
>                                                          <
>     SKY/WX - SKY CONDITION/PRESENT WEATHER               <
>     TMP    - TEMPERATURE IN FAHRENHEIT                   <
>     DP     - DEWPOINT IN FAHRENHEIT                      <
>     RH     - RELATIVE HUMIDITY IN PERCENT                <
>     WIND   - DIRECTION AND SPEED IN MPH                  <
>     PRES   - MEAN SEA LEVEL PRESSURE IN INCHES OF HG     <
>     WCI    - WIND CHILL INDEX                            <
>     VSB    - VISIBILITY IN MILES                         <
>     HX     - HEAT INDEX                                  <
>     TC     - TEMPERATURE IN CELSIUS                      <
>     VRB    - VARIABLE WIND DIRECTION                     <
>                                                          <
>>>>>>>>>>>>>>>>>>>>>>>>>>>> KEY <<<<<<<<<<<<<<<<<<<<<<<<<<<





USA.gov is the U.S. government's official web portal to all federal, state and local government web resources and services.